Temperature
24 24 23 23 22 22 22 21 21 21 20 20 20 20 20 19 19 19 19 19 19 19 19 19 19 19 19 19 19 19 18 18 19 19 18 18 18 18 18 18 18 18 18
24 23 23 23 22 22 22 21 21 21 20 20 20 20 19 19 19 19 19 19 19 19 19 19 19 19 19 19 19 18 18 18 18 18 18 18 18 18 18 18 18 18 18
24 23 23 23 23 22 22 22 21 21 20 20 20 19 19 19 19 19 19 19 19 19 19 19 19 19 19 19 18 18 18 18 18 18 18 18 18 18 18 18 18 18 18
24 24 23 23 23 23 22 22 21 21 20 20 20 19 19 19 19 19 19 19 19 19 19 19 19 19 19 18 18 18 18 18 18 18 18 18 18 18 18 18 18 18 18
24 24 24 24 23 23 22 22 21 21 20 20 20 19 19 19 19 19 19 19 19 19 19 19 19 19 19 18 18 18 18 18 18 18 18 18 18 18 17 17 18 18 18
24 24 24 24 23 23 22 22 22 21 20 20 20 20 19 19 19 19 19 19 19 18 18 18 18 18 18 18 18 18 18 18 18 18 18 18 18 17 17 17 17 17 18
24 24 24 23 23 23 22 22 22 21 21 20 20 20 19 19 19 19 19 19 18 18 18 18 18 18 18 18 18 18 18 18 18 18 18 17 17 17 17 17 17 17 17
24 24 24 23 23 23 22 22 21 21 21 20 20 20 19 19 19 19 19 19 18 18 18 18 18 18 18 18 18 18 18 17 17 17 17 17 17 17 17 17 17 17 17
24 24 23 23 23 22 22 22 21 21 21 20 20 20 19 19 19 19 19 19 18 18 18 18 18 18 18 18 18 18 17 17 17 17 17 17 17 17 17 17 17 17 16
24 24 23 23 23 22 22 22 21 21 21 20 20 20 19 19 19 19 19 18 18 18 18 18 18 18 18 18 17 17 17 17 17 17 17 17 17 17 17 17 17 16 16
24 23 23 23 22 22 22 21 21 21 21 20 20 20 19 19 19 19 19 18 18 18 18 18 18 18 18 18 17 17 17 17 17 17 17 17 17 17 17 17 17 16 16
24 23 23 22 22 21 21 21 21 21 21 20 20 20 19 19 19 18 18 18 18 18 18 18 18 17 17 17 17 17 17 17 17 17 17 17 17 17 16 16 16 16 16
23 23 22 22 22 21 21 21 21 21 20 20 20 19 19 19 19 18 18 18 18 18 17 17 17 17 17 17 17 17 17 17 17 16 16 16 16 16 16 16 16 16 16
23 23 22 22 22 21 21 21 21 20 20 20 19 19 19 18 18 18 18 17 17 17 17 17 17 17 17 17 16 16 16 16 16 16 16 16 16 16 16 16 16 16 16
22 22 22 22 21 21 21 21 20 20 20 20 19 19 18 18 18 17 17 17 17 17 17 17 16 16 16 16 16 16 16 16 16 16 16 16 16 15 15 15 15 15 15
22 22 22 22 21 21 21 20 20 20 20 19 19 19 18 18 18 17 17 17 17 16 16 16 16 16 16 16 16 16 16 16 16 16 16 16 15 15 15 15 15 15 15
22 22 22 21 21 21 21 20 20 20 19 19 19 18 18 18 17 17 17 17 16 16 16 16 16 16 15 15 15 15 15 15 15 15 15 15 15 15 15 15 14 14 14
22 22 22 21 21 21 21 20 20 19 19 19 19 18 18 18 17 17 17 17 16 16 16 16 16 15 15 15 15 15 15 15 15 15 15 15 15 15 14 14 14 14 14
22 22 22 22 21 21 20 20 19 19 19 18 18 18 18 17 17 17 17 16 16 16 16 16 15 15 15 15 15 15 15 15 15 15 15 15 15 15 14 14 14 14 14
22 22 22 21 21 21 20 19 19 19 18 18 18 18 17 17 17 17 17 16 16 16 15 15 15 15 15 15 15 14 14 14 14 14 14 14 14 14 14 14 14 14 14
21 21 21 21 21 20 20 19 19 18 18 18 17 17 17 17 17 16 16 16 16 15 15 15 15 15 14 14 14 14 14 14 14 14 14 14 14 14 14 14 14 13 13
21 21 21 21 20 20 20 19 19 18 18 17 17 17 17 16 16 16 16 15 15 15 15 14 14 14 14 14 14 14 14 14 14 14 14 13 13 13 13 13 13 13 13
20 21 20 20 20 19 19 19 18 18 17 17 17 16 16 16 16 16 15 15 15 15 14 14 14 14 14 14 13 14 14 13 13 13 13 13 13 13 13 13 13 13 13
20 20 20 20 19 19 19 18 18 17 17 17 16 16 16 15 15 15 15 15 14 14 14 14 14 14 13 13 13 13 13 13 13 13 13 13 13 13 13 12 12 12 12
19 19 19 19 19 18 18 18 17 17 17 16 16 16 16 15 15 15 15 14 14 14 14 14 14 13 13 13 13 13 13 13 13 13 12 12 12 12 12 12 12 12 12
18 18 18 18 18 18 17 17 17 17 16 16 15 15 15 15 15 15 14 14 14 14 14 14 13 13 13 13 13 13 13 12 12 12 12 12 12 12 12 12 12 12 12
Wind_Speed
10 12 13 13 12 10 9 9 8 7 5 3 3 2 1 1 1 2 3 4 3 4 3 1 2 2 2 2 2 1 1 1 1 2 2 2 1 2 2 2 3 4 6
10 12 12 12 12 12 10 9 8 7 6 4 4 3 3 2 2 1 2 3 2 2 3 2 3 3 2 2 2 1 1 0 1 2 2 2 3 3 2 1 3 3 4
15 14 13 12 12 12 11 11 9 8 7 5 3 2 2 1 1 0 1 1 2 3 3 3 2 2 3 3 2 2 2 1 0 2 3 2 3 2 3 2 2 2 2
13 13 13 13 13 13 11 9 9 8 6 6 5 5 3 3 3 2 2 1 2 2 3 3 2 2 2 3 2 2 2 2 1 1 1 2 3 2 2 3 2 2 3
15 15 14 14 13 12 10 9 8 7 6 6 6 5 3 3 2 1 2 2 1 1 2 2 2 1 1 2 2 1 2 2 2 2 1 0 1 2 2 2 3 2 2
13 13 12 11 9 9 9 9 9 7 7 6 6 5 5 4 3 2 2 2 1 1 1 2 1 1 1 2 3 2 2 2 2 2 1 2 2 1 2 3 3 3 3
11 12 12 11 10 10 10 9 9 8 8 7 6 6 6 6 5 4 3 2 1 1 2 2 1 2 2 2 2 2 2 2 2 2 2 2 2 2 2 2 2 2 2
10 12 12 12 11 11 10 10 9 8 8 8 7 6 6 5 4 4 4 4 3 3 3 2 2 2 2 2 2 2 2 2 2 2 2 2 2 2 2 3 2 1 2
10 11 11 11 11 11 11 10 9 7 7 7 6 5 5 5 5 4 3 3 3 3 3 2 2 2 3 3 2 2 2 2 2 2 2 2 2 2 2 2 3 3 2
7 9 9 10 10 10 9 8 8 7 7 7 6 6 5 5 4 4 4 3 3 3 3 2 2 2 2 3 2 1 2 2 2 2 2 2 2 2 2 2 2 3 4
7 8 8 9 9 9 8 8 7 6 6 6 6 5 5 5 4 4 4 4 3 3 3 3 2 2 2 2 2 2 2 2 2 2 2 2 2 1 2 2 2 2 3
7 8 9 9 9 8 8 7 7 7 6 6 5 4 4 4 4 4 4 3 3 3 3 3 2 2 2 1 2 3 2 2 2 2 1 2 2 2 2 1 2 2 2
7 7 8 9 9 9 8 7 7 6 5 5 5 5 5 4 4 4 3 3 3 3 2 2 2 2 2 2 2 2 3 3 3 3 3 3 2 2 2 2 2 2 2
8 8 8 9 9 9 9 8 7 6 6 5 5 5 5 5 5 4 3 3 3 3 2 2 3 3 2 2 2 2 2 3 3 3 3 3 3 3 3 3 3 2 1
7 9 9 9 8 8 7 7 6 6 6 5 5 5 4 4 4 4 3 3 3 3 2 2 2 2 2 1 1 2 2 2 2 2 3 3 3 4 4 3 3 3 2
7 8 9 9 9 9 8 7 7 6 6 6 5 4 3 3 4 4 3 3 3 2 2 2 2 2 2 2 2 1 2 2 2 3 3 3 3 3 3 4 4 4 4
7 8 9 9 9 8 9 9 8 6 6 5 4 4 4 4 4 4 3 3 3 3 2 3 3 3 3 3 2 1 2 2 2 3 3 3 3 2 2 2 3 3 5
8 8 8 8 7 6 7 7 7 6 6 6 5 4 4 4 3 3 4 4 3 3 3 3 4 3 3 3 3 1 1 1 2 3 3 3 3 2 2 2 2 3 3
8 8 9 9 8 7 7 7 6 6 6 5 5 5 5 4 3 4 4 3 3 3 3 4 4 3 3 3 2 1 1 1 2 3 3 3 4 4 3 2 2 2 3
5 7 8 8 8 8 8 8 6 6 6 6 5 5 5 5 4 4 3 2 3 3 3 3 4 4 3 3 3 2 1 1 2 3 3 4 4 4 4 4 4 4 4
6 6 7 7 7 8 9 8 7 6 6 4 4 4 4 4 4 3 2 2 2 3 3 3 3 3 4 4 4 3 2 2 3 3 3 4 5 5 5 5 4 6 4
4 6 6 5 6 7 8 7 6 5 4 4 3 3 2 2 2 3 2 2 3 3 3 2 1 2 2 3 3 3 3 3 3 3 3 4 5 5 5 4 4 4 2
4 5 6 5 4 5 7 7 6 5 5 4 3 2 2 1 2 2 2 1 2 2 2 2 2 2 1 2 3 3 4 3 2 3 4 4 5 4 3 3 3 2 2
4 4 6 6 4 3 5 5 5 5 5 5 4 3 3 1 1 1 2 2 2 2 2 3 3 2 2 2 2 2 2 2 1 1 2 3 3 2 2 2 2 2 2
3 3 4 5 4 4 4 4 5 5 5 4 3 2 3 3 2 1 1 2 2 3 4 4 4 4 4 5 5 4 3 2 2 0 1 1 2 2 2 1 2 2 1
2 2 3 4 4 4 4 3 4 5 6 4 3 3 2 2 2 2 1 3 1 2 3 4 4 4 5 5 4 4 3 3 3 2 0 1 1 2 2 2 2 2 2
Wind_Direction
172 166 164 162 160 161 161 163 161 169 160 149 148 147 172 194 194 188 171 172 179 183 183 202 190 184 182 196 175 171 188 232 111 71 7 347 306 253 234 213 200 207 209
165 167 166 166 166 168 168 167 168 171 170 170 170 172 173 195 200 197 160 164 174 195 199 197 196 185 178 177 175 151 144 219 129 127 103 0 343 323 283 235 207 212 200
176 174 173 174 172 173 174 175 175 175 177 171 152 133 97 72 57 174 188 195 190 192 188 183 177 178 175 184 193 169 154 171 243 155 147 153 229 294 314 277 242 221 206
178 178 176 178 180 181 177 170 173 175 176 163 157 163 170 187 210 201 199 215 193 185 164 145 151 162 168 165 196 178 172 161 195 251 188 175 171 175 290 317 302 253 223
180 180 181 183 181 178 175 169 165 170 173 168 168 172 180 194 195 181 181 201 214 185 165 156 147 150 164 177 192 183 180 175 176 191 206 204 150 162 174 259 298 313 278
182 181 181 175 171 169 168 167 165 171 178 178 177 170 172 177 174 186 192 211 229 237 199 169 165 169 173 194 196 187 177 186 179 180 171 169 168 194 180 218 246 265 281
179 176 174 171 171 170 170 168 167 173 179 177 179 175 176 177 181 187 191 191 197 222 222 206 194 195 202 206 197 184 199 187 181 196 203 193 196 180 174 182 224 250 279
181 176 176 173 172 171 167 166 168 177 179 181 184 179 177 180 188 190 189 194 199 208 207 200 204 205 202 196 185 191 212 201 208 221 206 208 223 190 176 177 173 232 296
173 169 169 168 168 170 171 171 171 174 179 182 180 179 182 181 188 192 188 195 205 202 191 194 203 210 206 198 178 198 224 213 214 220 217 219 234 207 201 188 173 171 219
152 160 161 160 166 166 164 160 165 174 180 180 184 187 190 190 186 177 185 192 198 198 189 205 200 201 203 199 187 201 218 204 219 209 204 224 234 218 214 210 195 179 184
153 155 157 155 149 146 153 158 161 164 171 177 183 185 193 194 185 184 191 189 185 184 190 199 196 198 202 200 193 206 197 203 225 231 209 227 218 214 228 220 206 201 179
148 149 151 148 147 148 150 156 163 168 175 172 171 184 197 190 188 196 200 185 181 186 186 182 180 194 197 200 204 215 204 195 211 233 229 249 240 234 237 225 228 223 203
136 135 143 150 156 157 158 162 166 169 170 163 166 182 192 184 196 206 205 191 186 194 190 175 186 202 203 206 223 220 215 208 210 213 219 236 219 240 246 233 236 234 222
143 146 154 161 163 163 165 168 172 171 169 167 169 184 192 187 196 203 203 199 196 197 200 197 201 207 209 207 226 223 228 227 225 219 220 226 217 229 237 241 237 226 202
152 158 162 164 162 162 165 166 168 169 167 166 173 189 191 180 171 179 193 201 208 213 205 202 218 215 208 217 232 235 236 229 247 253 242 234 226 227 231 239 225 206 200
171 170 165 162 166 167 165 160 165 171 164 169 182 186 180 176 178 185 193 197 201 208 198 192 200 214 256 276 248 230 235 231 233 257 263 258 242 242 240 245 231 209 202
175 173 171 169 171 172 165 168 173 170 163 171 177 179 181 185 189 189 191 209 203 193 200 203 180 195 241 250 237 242 197 210 232 248 262 269 268 231 224 256 260 250 228
176 172 171 169 166 163 161 164 161 160 166 171 176 178 179 188 193 187 199 213 195 191 201 200 191 195 231 227 217 209 162 193 237 241 242 249 261 241 207 236 251 260 259
180 172 167 163 158 154 151 146 151 159 167 179 186 188 185 187 193 200 208 204 189 199 198 195 195 199 234 234 212 137 161 247 267 261 255 243 244 240 209 206 230 266 283
162 162 159 153 153 158 149 148 162 166 181 192 194 192 187 188 197 203 205 201 188 198 196 198 200 200 218 217 198 165 171 230 274 288 277 255 244 245 226 210 215 238 260
158 153 148 154 164 159 150 152 160 180 191 184 179 181 183 188 187 185 189 180 182 186 191 192 215 211 215 217 209 195 185 216 248 267 276 273 261 255 253 233 228 232 233
129 133 133 144 152 151 148 151 169 180 161 154 157 165 178 191 180 166 180 172 168 173 178 176 208 233 227 215 222 224 222 222 222 247 257 266 274 272 265 251 255 255 232
123 130 126 127 135 153 154 161 176 163 149 145 150 157 159 162 163 171 176 175 171 173 183 180 201 241 252 247 241 240 243 242 225 246 255 272 284 275 264 257 253 229 205
99 114 121 127 138 153 153 160 162 154 146 150 156 158 153 147 137 159 173 180 193 187 194 199 208 222 236 242 246 249 255 260 273 300 297 290 280 287 277 279 273 237 218
98 105 137 147 156 154 148 156 156 144 144 148 154 165 173 165 156 156 209 211 225 219 202 205 200 200 228 242 225 208 216 216 221 52 19 19 352 335 328 309 282 274 252
101 105 130 137 143 145 151 162 167 154 149 153 164 184 186 171 159 150 17 359 315 287 235 210 202 223 229 235 228 218 216 214 186 136 160 276 281 272 274 276 277 265 245
Height
1519 1521 1524 1526 1528 1530 1532 1533 1535 1536 1538 1539 1539 1540 1541 1542 1542 1542 1543 1543 1543 1543 1543 1543 1542 1542 1543 1543 1543 1544 1544 1545 1545 1545 1546 1546 1547 1547 1547 1547 1547 1547 1547
1517 1520 1522 1524 1525 1528 1530 1532 1533 1535 1536 1537 1539 1539 1540 1541 1541 1541 1542 1542 1542 1542 1542 1542 1541 1541 1541 1542 1543 1543 1543 1544 1544 1544 1544 1545 1546 1545 1545 1545 1545 1545 1545
1514 1517 1520 1522 1524 1526 1528 1529 1531 1533 1535 1536 1537 1538 1539 1540 1540 1540 1540 1541 1541 1541 1541 1540 1540 1540 1540 1541 1541 1542 1542 1542 1543 1543 1544 1544 1543 1543 1544 1543 1543 1543 1543
1512 1514 1517 1519 1521 1524 1526 1528 1530 1532 1533 1534 1536 1536 1537 1537 1538 1538 1539 1539 1540 1540 1540 1539 1539 1539 1539 1539 1540 1540 1541 1541 1541 1542 1542 1543 1542 1542 1542 1542 1542 1542 1541
1508 1511 1513 1516 1519 1522 1524 1526 1528 1530 1532 1533 1534 1535 1536 1536 1537 1537 1538 1538 1538 1538 1538 1537 1537 1537 1537 1538 1538 1538 1538 1539 1539 1539 1540 1540 1540 1540 1540 1540 1540 1540 1539
1504 1507 1510 1514 1517 1520 1522 1524 1526 1527 1529 1531 1532 1533 1533 1534 1535 1535 1536 1536 1536 1536 1536 1536 1536 1535 1535 1536 1536 1536 1537 1537 1537 1537 1537 1538 1538 1538 1538 1538 1537 1537 1537
1502 1504 1508 1510 1513 1516 1519 1521 1523 1525 1527 1528 1529 1530 1531 1532 1532 1533 1533 1534 1534 1534 1534 1534 1534 1534 1534 1534 1534 1534 1534 1535 1535 1535 1535 1536 1536 1536 1536 1536 1535 1535 1535
1499 1501 1504 1507 1510 1513 1516 1519 1521 1522 1524 1525 1526 1527 1529 1530 1530 1531 1531 1532 1532 1532 1533 1533 1533 1533 1532 1532 1532 1532 1532 1533 1533 1533 1533 1533 1534 1534 1534 1534 1534 1533 1532
1495 1498 1501 1505 1508 1511 1513 1516 1518 1520 1522 1523 1525 1526 1527 1527 1528 1529 1529 1529 1530 1530 1531 1531 1531 1531 1530 1530 1530 1530 1530 1530 1530 1530 1531 1531 1531 1531 1531 1531 1531 1532 1530
1494 1497 1499 1502 1506 1508 1511 1514 1516 1518 1519 1521 1522 1524 1525 1525 1526 1527 1527 1527 1528 1528 1528 1528 1529 1529 1528 1528 1528 1527 1528 1528 1528 1528 1528 1528 1528 1528 1528 1528 1528 1528 1528
1492 1496 1499 1501 1504 1507 1509 1512 1514 1515 1517 1519 1520 1521 1522 1523 1524 1524 1525 1525 1525 1526 1526 1526 1526 1526 1526 1526 1526 1526 1525 1525 1525 1525 1525 1525 1525 1525 1525 1525 1525 1525 1525
1491 1495 1497 1500 1503 1505 1508 1510 1512 1514 1515 1517 1518 1519 1520 1521 1521 1521 1522 1523 1523 1523 1523 1523 1523 1523 1524 1524 1524 1524 1523 1523 1522 1522 1522 1522 1522 1522 1522 1522 1522 1522 1522
1490 1493 1496 1499 1501 1503 1506 1508 1510 1511 1513 1514 1515 1515 1516 1517 1517 1518 1519 1520 1520 1521 1521 1521 1520 1521 1521 1521 1521 1521 1521 1520 1520 1520 1519 1519 1519 1519 1519 1519 1519 1519 1518
1489 1492 1495 1498 1500 1502 1504 1506 1508 1509 1511 1512 1512 1513 1513 1514 1514 1515 1516 1517 1517 1518 1518 1518 1518 1518 1518 1518 1518 1518 1518 1517 1517 1517 1517 1516 1516 1516 1515 1515 1515 1515 1515
1488 1490 1493 1495 1498 1500 1502 1504 1506 1507 1508 1509 1510 1510 1511 1512 1512 1512 1513 1514 1514 1514 1515 1515 1515 1515 1515 1514 1514 1514 1514 1514 1514 1514 1513 1513 1513 1512 1512 1512 1511 1511 1511
1487 1489 1491 1493 1495 1497 1499 1502 1503 1505 1506 1507 1507 1508 1509 1509 1509 1509 1510 1511 1511 1511 1512 1512 1512 1511 1511 1512 1511 1511 1510 1510 1510 1510 1509 1509 1509 1508 1508 1508 1508 1508 1508
1485 1488 1489 1490 1492 1495 1496 1498 1500 1502 1503 1504 1505 1506 1506 1506 1506 1507 1507 1507 1508 1508 1508 1508 1508 1508 1508 1508 1508 1507 1507 1507 1507 1506 1506 1506 1505 1504 1504 1504 1504 1504 1504
1482 1485 1487 1488 1490 1493 1495 1496 1498 1499 1500 1501 1502 1503 1503 1504 1504 1504 1504 1505 1505 1505 1505 1505 1505 1505 1505 1505 1504 1504 1503 1503 1503 1503 1502 1502 1501 1501 1500 1500 1500 1500 1499
1480 1482 1484 1486 1488 1490 1492 1494 1496 1497 1498 1498 1499 1500 1500 1501 1501 1501 1502 1502 1501 1501 1501 1501 1501 1501 1501 1501 1501 1500 1500 1500 1499 1499 1499 1499 1498 1497 1497 1497 1496 1496 1495
1479 1480 1482 1484 1485 1487 1490 1492 1492 1494 1495 1495 1496 1497 1497 1498 1498 1498 1498 1498 1498 1498 1498 1498 1498 1498 1498 1498 1498 1498 1497 1497 1496 1495 1495 1496 1495 1494 1494 1493 1493 1492 1492
1477 1479 1480 1482 1483 1485 1487 1488 1489 1491 1492 1493 1493 1494 1494 1495 1495 1495 1496 1495 1495 1495 1494 1494 1495 1495 1495 1495 1495 1495 1495 1494 1493 1492 1492 1492 1492 1491 1491 1490 1489 1489 1489
1476 1478 1479 1480 1482 1483 1484 1485 1486 1488 1490 1491 1491 1491 1492 1492 1492 1492 1492 1492 1492 1492 1491 1492 1492 1492 1492 1492 1492 1492 1492 1491 1490 1489 1489 1489 1488 1488 1487 1487 1486 1486 1486
1474 1475 1476 1478 1480 1481 1482 1483 1484 1486 1487 1488 1489 1489 1490 1490 1490 1490 1490 1490 1489 1489 1488 1489 1489 1489 1489 1489 1489 1489 1489 1488 1487 1487 1486 1486 1485 1485 1484 1483 1483 1482 1482
1472 1473 1474 1476 1478 1479 1480 1481 1482 1483 1484 1485 1486 1487 1487 1487 1488 1487 1487 1487 1487 1486 1485 1485 1486 1486 1486 1486 1486 1486 1486 1485 1484 1484 1483 1483 1483 1482 1481 1481 1480 1480 1479
1470 1472 1473 1474 1475 1477 1478 1479 1480 1481 1482 1483 1483 1485 1485 1484 1485 1485 1485 1485 1484 1484 1483 1483 1483 1483 1483 1483 1484 1483 1483 1482 1482 1481 1481 1480 1480 1479 1478 1478 1477 1477 1476
1470 1471 1472 1472 1473 1474 1476 1477 1478 1478 1479 1480 1481 1482 1483 1482 1482 1482 1482 1482 1482 1482 1481 1481 1481 1481 1481 1480 1481 1481 1480 1480 1479 1479 1477 1477 1477 1476 1476 1475 1474 1473 1473